Regional Weather Roundup
Issued by NWS Newport/Morehead, NC

Current Version | Previous Version | Graphics & Text | Print | Product List | Glossary On
Versions: 1 2 3 4 5 6 7 8 9 10 11 12 13 14 15 16 17 18 19 20 21 22 23 24 25 26 27 28 29 30 31 32 33 34 35 36 37 38 39 40 41 42 43 44 45 46 47 48 49 50
000 ASUS42 KMHX 250513 RWRMHX WEATHER ROUNDUP FOR EASTERN NORTH CAROLINA NATIONAL WEATHER SERVICE NEWPORT/MOREHEAD CITY NC 100 AM EDT MON JUL 25 2016 NOTE: "FAIR" INDICATES FEW OR NO CLOUDS BELOW 12,000 FEET WITH NO SIGNIFICANT WEATHER AND/OR OBSTRUCTIONS TO VISIBILITY NCZ015>017-031-032-045>047-102-103-250600- NORTH COAST CITY SKY/WX TMP DP RH WIND PRES REMARKS EDENTON CLEAR 82 76 82 SW7 30.03F ELIZABETH CITY CLEAR 81 76 84 S10 30.02F KITTY HAWK CLEAR 82 76 84 SW6 30.02F MANTEO N/A 81 79 94 SW13 30.03F $$ NCZ045>047-081-094-103-104-250600- CENTRAL COAST CITY SKY/WX TMP DP RH WIND PRES REMARKS FRISCO PTCLDY 82 77 84 SW7 30.05F $$ NCZ095-097-098-100-101-250600- SOUTHERN COAST CITY SKY/WX TMP DP RH WIND PRES REMARKS BEAUFORT PTCLDY 83 77 82 SW12 30.05F CEDAR ISLAND NOT AVBL JACKSONVILLE CLEAR 79 75 87 CALM 30.05S PINEY ISLAND NOT AVBL WILMINGTON CLEAR 79 75 87 S5 30.05F $$ NCZ011>013-027>030-043-044-078>080-089-090>093-098-250600- COASTAL PLAIN CITY SKY/WX TMP DP RH WIND PRES REMARKS AHOSKIE CLEAR 77 76 95 S3 30.02S CLINTON CLEAR 79 78 97 CALM 30.05S ELIZABETHTOWN CLEAR 80 80 98 S3 30.05S GOLDSBORO CLEAR 80 80 100 SW5 30.02F GREENVILLE CLEAR 81 77 89 SW7 30.05F HAVELOCK CLEAR 79 76 90 SW5 30.06F KENANSVILLE NOT AVBL KINSTON CLEAR 79 76 90 S6 30.04F NEW BERN CLEAR 79 76 90 S6 30.06F RICHLANDS CLEAR 76 74 93 S5 30.06S ROCKY MOUNT CLEAR 78 76 93 S5 30.03F WASHINGTON CLEAR 78 75 90 S5 30.04S WHITEVILLE CLEAR 80 77 92 S5 30.05S $$ AMZ130-135-150-152-154-156-158-170-250-252-270-ANZ085-086-088-633-658-670-250600- MARINE OBSERVATIONS STATION/POSITION TIME TEMP WIND PRES WAVE SWELL AIR SEA DIR/SP/G HT/PER HT/PER (UTC) (F) (DEG/KT/KT) (MB) (FT/S) (FT/S) CHESAPEAKE LIGHT NOT AVBL 64 E VA BEACH 0450 82 81 220/ 14/ 17 1015.7 3/ 4 2/ 8 DUCK 0400 84 62 220/ 13/ 17 1016.1 2 E DUCK 0411 75 N/A 1/ 9 OREGON INLET 0400 84 85 210/ 15/ 18 1017.2 13E OREGON INLT 0500 83 N/A 2/ 4 2/ 8 HATTERAS CG 0400 82 84 220/ 7/ 9 1017.5 DIAMOND BUOY 0450 85 85 220/ 14/ 17 1017.5 2/ 4 2/ 8 CAPE LOOKOUT 0500 83 210/ 8/ 10 1017.6 BEAUFORT LAB 0400 83 84 220/ 7/ 11 1017.4 30 SE NEW RVR IN 0408 84 85 210/ 12/ 17 1017.9 30 SE NEW RVR IN 0425 85 N/A 3/ 8 27 SE WRIGHTSVLE 0408 84 85 210/ 12/ 14 1018.0 5 SE WRIGHTSVLE NOT AVBL 225 S CAPE HAT 0450 84 84 180/ 4/ 6 1019.2 2/ 9 2/ 9 41 SE CHARLESTON 0450 85 86 210/ 12/ 14 1017.4 2/ 8 2/ 8 $$

USA.gov is the U.S. government's official web portal to all federal, state and local government web resources and services.